Perry, IA

11:50 AM CDT on May 25, 2018 (GMT -0500)
Perry Municipal

Weather History for KPRO - March, 2014

Change the Weather History Date:

Wednesday, March 5, 2014

  Actual Average Record
Temperature  
Mean Temperature 22 °F -  
Max Temperature 25 °F 40 °F 71 °F (2009)
Min Temperature 20 °F 21 °F -24 °F (1960)
Degree Days  
Heating Degree Days 42    
Moisture  
Dew Point 16 °F    
Average Humidity 75    
Maximum Humidity 83    
Minimum Humidity 69    
Precipitation  
Precipitation 0.00 in - - ()
Sea Level Pressure  
Sea Level Pressure 30.27 in    
Wind  
Wind Speed 10 mph (East)    
Max Wind Speed 16 mph    
Max Gust Speed 21 mph    
Visibility 10 miles    
Events      
Averages and records for this station are not official NWS values.
T = Trace of Precipitation, MM = Missing Value Source: NWS Daily Summary

Daily Weather History Graph

Daily Weather History Graph

Search for Another Location

Airport or City:

Astronomy

Mar. 05, 2014 Rise Set
Actual Time 6:45 AM CST 6:11 PM CST
Civil Twilight 6:17 AM CST 6:39 PM CST
Nautical Twilight 5:45 AM CST 7:11 PM CST
Astronomical Twilight 5:12 AM CST 7:44 PM CST
Moon 9:06 AM CST (3/5) 11:26 PM CST (3/5)
Length of Visible Light 12h 22m
Length of Day
11h 26m
Waxing Crescent, 23% of the Moon is Illuminated
Mar 5
Waxing Crescent
Mar 8
First Quarter
Mar 16
Full
Mar 23
Last Quarter
Mar 30
New

Hourly Weather History & Observations

Time (CST) Temp. Windchill Dew Point Humidity Pressure Visibility Wind Dir Wind Speed Gust Speed Precip Events Conditions
12:15 AM 20.1 °F 8.8 °F 12.9 °F 74% 30.15 in 10.0 mi ENE 10.4 mph - N/A   Clear
12:35 AM 20.1 °F 10.3 °F 12.7 °F 73% 30.15 in 10.0 mi ENE 8.1 mph - N/A   Clear
12:55 AM 20.1 °F 9.5 °F 12.9 °F 74% 30.15 in 10.0 mi ENE 9.2 mph - N/A   Clear
1:15 AM 20.3 °F 9.0 °F 13.1 °F 74% 30.15 in 10.0 mi ENE 10.4 mph - N/A   Scattered Clouds
1:35 AM 20.5 °F 9.2 °F 13.1 °F 73% 30.15 in 10.0 mi ENE 10.4 mph - N/A   Scattered Clouds
1:55 AM 20.8 °F 9.7 °F 13.1 °F 72% 30.15 in 10.0 mi ENE 10.4 mph - N/A   Mostly Cloudy
2:15 AM 20.8 °F 9.7 °F 13.1 °F 72% 30.15 in 10.0 mi East 10.4 mph - N/A   Mostly Cloudy
2:35 AM 20.8 °F 10.4 °F 12.7 °F 71% 30.16 in 10.0 mi ENE 9.2 mph - N/A   Scattered Clouds
2:55 AM 21.0 °F 11.4 °F 12.6 °F 70% 30.17 in 10.0 mi ENE 8.1 mph - N/A   Mostly Cloudy
3:15 AM 21.2 °F 12.6 °F 12.6 °F 69% 30.17 in 10.0 mi East 6.9 mph - N/A   Overcast
3:35 AM 21.2 °F 10.1 °F 12.9 °F 70% 30.17 in 10.0 mi ENE 10.4 mph - N/A   Overcast
3:55 AM 21.2 °F 11.7 °F 12.9 °F 70% 30.17 in 10.0 mi ENE 8.1 mph - N/A   Overcast
4:15 AM 21.2 °F 11.7 °F 13.3 °F 72% 30.18 in 10.0 mi ENE 8.1 mph - N/A   Overcast
4:35 AM 21.2 °F 12.6 °F 13.5 °F 72% 30.19 in 10.0 mi East 6.9 mph - N/A   Overcast
4:55 AM 21.2 °F 12.6 °F 13.6 °F 73% 30.20 in 10.0 mi ENE 6.9 mph - N/A   Overcast
5:15 AM 21.0 °F 11.4 °F 13.3 °F 72% 30.20 in 10.0 mi ENE 8.1 mph - N/A   Overcast
5:35 AM 21.0 °F 11.4 °F 13.3 °F 72% 30.21 in 10.0 mi ENE 8.1 mph - N/A   Overcast
5:55 AM 21.2 °F 11.7 °F 13.3 °F 72% 30.21 in 10.0 mi East 8.1 mph - N/A   Overcast
6:15 AM 21.2 °F 10.9 °F 13.6 °F 73% 30.22 in 10.0 mi ENE 9.2 mph - N/A   Overcast
6:35 AM 21.0 °F 9.3 °F 13.1 °F 71% 30.22 in 10.0 mi East 11.5 mph - N/A   Overcast
6:55 AM 21.0 °F 9.3 °F 13.1 °F 71% 30.23 in 10.0 mi ENE 11.5 mph - N/A   Overcast
7:15 AM 20.8 °F 7.9 °F 13.1 °F 72% 30.22 in 10.0 mi East 13.8 mph 18.4 mph N/A   Overcast
7:35 AM 20.3 °F 6.1 °F 13.3 °F 74% 30.22 in 10.0 mi East 16.1 mph 19.6 mph N/A   Scattered Clouds
7:55 AM 20.3 °F 7.2 °F 13.3 °F 74% 30.22 in 10.0 mi East 13.8 mph - N/A   Scattered Clouds
8:15 AM 20.8 °F 9.0 °F 13.3 °F 73% 30.24 in 10.0 mi East 11.5 mph - N/A   Mostly Cloudy
8:35 AM 21.0 °F 8.1 °F 13.8 °F 74% 30.25 in 10.0 mi East 13.8 mph 19.6 mph N/A   Overcast
9:00 AM 21.4 °F 9.1 °F 14.7 °F 75% 30.28 in 10.0 mi East 12.7 mph 20.7 mph N/A   Overcast
9:15 AM 21.7 °F 9.6 °F 15.1 °F 76% 30.28 in 10.0 mi East 12.7 mph - N/A   Overcast
9:35 AM 21.9 °F 10.4 °F 14.9 °F 74% 30.30 in 10.0 mi East 11.5 mph - N/A   Overcast
9:55 AM 22.6 °F 11.3 °F 15.6 °F 74% 30.30 in 10.0 mi East 11.5 mph - N/A   Overcast
10:15 AM 23.0 °F 13.9 °F 15.8 °F 74% 30.31 in 10.0 mi East 8.1 mph - N/A   Overcast
10:35 AM 23.5 °F 12.4 °F 16.0 °F 73% 30.31 in 10.0 mi East 11.5 mph - N/A   Overcast
10:55 AM 23.7 °F 13.3 °F 16.2 °F 73% 30.32 in 10.0 mi ENE 10.4 mph - N/A   Overcast
11:15 AM 23.9 °F 13.5 °F 16.2 °F 72% 30.32 in 10.0 mi East 10.4 mph - N/A   Overcast
11:35 AM 24.4 °F 14.9 °F 16.5 °F 72% 30.32 in 10.0 mi ENE 9.2 mph - N/A   Overcast
11:55 AM 24.4 °F 14.2 °F 16.7 °F 72% 30.32 in 10.0 mi ENE 10.4 mph - N/A   Overcast
12:15 PM 24.6 °F 14.4 °F 17.1 °F 73% 30.32 in 10.0 mi ENE 10.4 mph - N/A   Overcast
12:35 PM 25.2 °F 16.5 °F 17.4 °F 72% 30.32 in 10.0 mi ENE 8.1 mph - N/A   Overcast
12:55 PM 24.8 °F 15.3 °F 17.2 °F 73% 30.32 in 10.0 mi East 9.2 mph - N/A   Overcast
1:15 PM 24.8 °F 14.6 °F 17.4 °F 74% 30.32 in 10.0 mi ENE 10.4 mph - N/A   Overcast
1:40 PM 25.0 °F 14.8 °F 18.0 °F 75% 30.31 in 10.0 mi East 10.4 mph - N/A   Overcast
1:55 PM 25.0 °F 13.6 °F 17.6 °F 74% 30.30 in 10.0 mi East 12.7 mph - N/A   Overcast
2:15 PM 24.8 °F 13.4 °F 17.4 °F 74% 30.31 in 10.0 mi East 12.7 mph - N/A   Overcast
2:35 PM 24.8 °F 12.4 °F 17.6 °F 74% 30.30 in 10.0 mi East 15.0 mph - N/A   Overcast
2:55 PM 24.8 °F 14.0 °F 17.6 °F 74% 30.30 in 10.0 mi East 11.5 mph - N/A   Overcast
3:15 PM 25.2 °F 13.3 °F 18.1 °F 75% 30.31 in 10.0 mi East 13.8 mph - N/A   Overcast
3:35 PM 24.8 °F 14.0 °F 18.0 °F 75% 30.31 in 10.0 mi East 11.5 mph - N/A   Overcast
3:55 PM 24.8 °F 13.4 °F 18.0 °F 75% 30.30 in 10.0 mi East 12.7 mph - N/A   Overcast
4:15 PM 24.6 °F 13.8 °F 18.1 °F 76% 30.30 in 10.0 mi East 11.5 mph - N/A   Overcast
4:35 PM 24.6 °F 13.2 °F 18.3 °F 77% 30.30 in 10.0 mi East 12.7 mph - N/A   Overcast
4:55 PM 24.4 °F 13.0 °F 18.0 °F 76% 30.31 in 10.0 mi East 12.7 mph - N/A   Overcast
5:15 PM 24.1 °F 13.1 °F 17.8 °F 77% 30.31 in 10.0 mi East 11.5 mph - N/A   Overcast
5:35 PM 23.9 °F 12.3 °F 17.6 °F 77% 30.32 in 10.0 mi East 12.7 mph - N/A   Overcast
5:55 PM 23.7 °F 12.1 °F 17.6 °F 77% 30.32 in 10.0 mi East 12.7 mph - N/A   Overcast
6:15 PM 23.4 °F 12.2 °F 17.6 °F 79% 30.32 in 10.0 mi East 11.5 mph - N/A   Overcast
6:35 PM 23.0 °F 11.1 °F 17.6 °F 80% 30.33 in 10.0 mi East 12.7 mph - N/A   Overcast
6:55 PM 23.0 °F 11.7 °F 17.6 °F 80% 30.34 in 10.0 mi East 11.5 mph - N/A   Overcast
7:15 PM 23.0 °F 11.7 °F 17.4 °F 79% 30.34 in 10.0 mi East 11.5 mph - N/A   Overcast
7:35 PM 22.8 °F 12.9 °F 17.4 °F 80% 30.34 in 10.0 mi East 9.2 mph - N/A   Overcast
7:55 PM 22.8 °F 11.5 °F 17.6 °F 80% 30.33 in 10.0 mi ESE 11.5 mph - N/A   Overcast
8:15 PM 22.6 °F 11.3 °F 17.6 °F 81% 30.33 in 10.0 mi ESE 11.5 mph - N/A   Overcast
8:35 PM 22.1 °F 10.0 °F 17.6 °F 83% 30.33 in 10.0 mi ESE 12.7 mph - N/A   Overcast
8:55 PM 22.1 °F 10.0 °F 17.4 °F 82% 30.34 in 10.0 mi ESE 12.7 mph - N/A   Overcast
9:15 PM 22.1 °F 10.6 °F 17.6 °F 83% 30.34 in 10.0 mi ESE 11.5 mph - N/A   Overcast
9:35 PM 21.9 °F 12.5 °F 17.4 °F 83% 30.33 in 10.0 mi ESE 8.1 mph - N/A   Overcast
9:55 PM 22.1 °F 11.3 °F 17.4 °F 82% 30.33 in 10.0 mi ESE 10.4 mph - N/A   Overcast
10:15 PM 22.1 °F 10.0 °F 17.4 °F 82% 30.32 in 10.0 mi ESE 12.7 mph - N/A   Overcast
10:35 PM 22.1 °F 10.6 °F 17.2 °F 82% 30.33 in 10.0 mi ESE 11.5 mph - N/A   Overcast
10:55 PM 21.9 °F 11.0 °F 17.2 °F 82% 30.33 in 10.0 mi ESE 10.4 mph - N/A   Overcast
11:15 PM 21.9 °F 12.5 °F 17.6 °F 83% 30.33 in 10.0 mi ESE 8.1 mph - N/A   Overcast
11:35 PM 22.1 °F 12.0 °F 17.6 °F 83% 30.33 in 10.0 mi ESE 9.2 mph - N/A   Overcast
11:55 PM 22.1 °F 11.3 °F 17.4 °F 82% 30.31 in 10.0 mi ESE 10.4 mph - N/A   Overcast